Lid_Strength_Index
2 2 2 2 3 3 3 3 3 3 4 4 4 4 4 4 4 3 3 4 4 4 4 4 4 4 9 13 13 9 6 7 10 10 12 13 14 16 17 17 16 17 17 16 15 16 16
4 3 3 2 2 3 3 3 3 4 4 5 5 5 4 4 3 4 3 4 4 4 4 4 4 5 11 15 10 11 11 11 11 11 13 13 15 14 16 17 17 17 16 16 16 16 15
4 4 4 4 3 3 3 3 4 4 5 5 5 5 4 4 4 3 3 4 4 4 4 4 4 8 13 14 11 11 11 12 11 12 13 12 13 14 15 17 16 16 17 17 17 16 16
4 5 4 4 5 4 3 3 3 4 5 5 5 5 5 4 4 4 3 3 3 4 4 4 5 12 16 10 12 11 11 12 11 11 12 11 12 14 15 16 16 17 17 19 17 16 16
3 3 4 5 5 4 3 3 3 4 5 5 5 6 5 4 4 3 3 3 4 4 4 4 10 13 16 9 12 12 12 12 11 11 11 10 12 15 15 18 19 19 20 20 18 16 17
3 3 3 4 4 4 4 3 3 4 4 4 4 5 4 4 4 3 3 3 4 5 6 7 10 15 14 15 13 12 12 11 12 13 13 12 14 18 19 18 19 19 21 19 20 18 18
3 3 3 4 4 4 4 4 3 3 3 3 4 4 3 4 3 3 4 8 13 13 12 15 15 15 14 13 11 13 12 13 13 14 18 16 17 20 19 17 18 18 19 20 20 18 19
3 3 3 4 4 4 4 5 4 3 4 3 3 4 3 4 3 3 7 12 13 13 16 12 13 14 13 13 15 14 12 15 16 18 17 17 20 17 16 17 18 19 21 22 20 18 19
4 4 4 4 4 4 4 5 5 4 4 4 4 4 3 4 3 6 9 10 9 11 15 14 13 14 14 13 15 15 14 15 17 18 18 19 18 16 17 18 18 21 21 21 21 20 20
3 3 4 4 4 4 4 4 5 5 4 4 4 4 3 3 7 8 9 9 10 12 18 17 15 14 14 13 16 13 13 15 17 18 18 18 17 17 18 19 19 21 19 19 20 22 23
2 3 3 3 4 4 4 4 4 5 4 5 3 4 2 4 10 10 10 10 10 11 21 16 16 12 13 16 16 15 13 15 18 18 18 19 19 19 19 19 18 20 19 20 21 23 26
2 2 2 3 3 3 3 4 4 4 4 5 3 3 4 7 11 11 10 10 11 16 21 18 16 17 17 16 16 15 16 15 16 18 18 19 17 18 19 18 18 18 21 22 24 25 27
2 2 2 2 3 3 3 3 4 4 5 4 4 3 5 8 12 10 10 12 17 20 16 19 19 17 18 18 18 18 18 20 21 23 21 20 20 18 17 20 19 24 24 26 25 28 23
2 2 2 2 2 2 3 3 3 4 4 4 4 3 6 9 10 11 12 16 21 16 18 17 18 18 19 18 19 19 21 23 20 21 24 22 23 20 18 20 21 27 24 22 26 27 25
3 3 2 2 2 2 2 2 2 3 4 4 4 8 8 8 9 11 15 21 18 17 15 18 18 20 20 19 19 20 21 22 20 20 20 24 21 19 19 20 20 24 25 22 26 30 28
2 2 2 2 2 1 1 1 2 2 3 4 7 9 10 8 9 12 17 17 17 13 15 16 18 18 21 20 21 22 21 20 19 19 21 20 23 20 20 19 20 22 21 24 26 27 28
2 2 2 2 2 2 2 2 2 2 3 3 9 12 10 8 10 15 20 18 15 12 13 16 16 18 18 20 20 22 21 18 17 19 18 23 22 24 21 23 24 24 25 28 25 24 26
2 2 2 2 2 2 2 2 2 3 3 6 10 15 10 10 16 17 19 17 12 13 13 14 14 15 17 18 20 20 20 17 16 17 19 18 24 26 24 25 24 25 23 24 21 25 29
2 2 2 2 2 2 2 2 2 2 4 9 12 15 11 12 20 20 18 16 13 13 14 14 15 14 15 18 21 19 18 15 15 16 17 17 22 26 24 24 23 24 24 25 28 29 29
2 1 2 2 2 2 2 2 2 3 4 7 13 16 15 14 16 19 19 17 17 13 13 13 14 14 16 17 17 19 19 15 15 15 12 13 21 21 20 22 24 27 25 23 22 27 24
4 3 3 4 4 4 2 2 2 3 4 7 11 15 15 18 17 17 16 16 17 17 14 14 16 16 16 18 18 18 18 18 17 15 16 16 21 23 23 22 22 23 23 23 23 20 21
2 3 3 3 4 4 3 3 2 2 2 7 12 14 15 19 16 16 16 17 18 16 15 16 16 15 14 16 16 19 16 18 17 20 19 22 22 24 25 22 22 22 21 21 21 20 20
2 2 2 2 3 3 3 3 3 1 2 7 7 9 11 15 17 17 17 16 16 14 14 13 14 14 17 15 13 12 13 14 16 18 18 20 22 22 21 22 20 20 19 23 23 21 19
3 3 3 3 2 2 3 3 3 2 1 4 6 8 13 14 15 16 15 15 15 14 15 13 12 15 13 10 11 12 12 13 13 15 15 20 20 18 20 20 23 19 23 15 17 16 18
2 2 3 3 4 2 2 2 2 3 2 7 7 9 12 12 12 14 14 14 14 13 13 14 12 11 9 12 14 16 16 16 15 14 16 15 17 18 20 21 19 17 23 19 17 17 14
1 1 1 1 3 3 3 3 2 3 2 4 7 6 11 12 12 10 13 13 14 14 13 13 10 9 10 13 14 18 19 21 19 17 13 14 14 16 19 20 22 17 18 21 18 19 16
1 1 2 1 1 1 2 3 3 3 3 4 6 5 9 12 10 9 11 12 11 12 13 12 11 12 10 13 15 16 16 16 19 19 19 17 16 18 18 18 19 19 23 20 21 18 12
1 2 2 2 2 2 2 2 3 3 4 5 6 5 8 11 10 8 8 10 11 10 12 14 11 12 13 14 14 14 15 15 17 19 18 17 18 18 17 18 19 20 19 16 15 21 20
1 1 1 1 2 2 2 2 2 2 3 4 8 4 5 9 9 7 7 7 7 6 8 10 11 11 10 12 12 13 13 14 14 16 19 17 15 16 16 15 14 16 14 16 21 19 19